Flag for Saudi Arabia Weather past 2 weeks in Qatif, Saudi Arabia

Now
90 °F

Sunny.


Feels Like: 103 °F
Forecast: 87 / 105 °F
Wind: No wind

Location: King Fahd International Airport

Current Time: Aug 30, 2014 at 7:54:16 AM

Latest Report: Aug 30, 2014 at 7:00 AM


Visibility: 4 mi

Pressure: 29.62 "Hg

Humidity: 67%

Dew point: 77 °F

Location of QatifLocation

Historic Weather in Qatif — Graph

°F

Qatif temperature yesterday

Maximum temperature yesterday: 108 °F (at 12:00 PM)
Minimum temperature yesterday: 88 °F (at 4:00 AM)
Average temperature yesterday: 96 °F

Past Weeks' High & Low Weather Summary

 TemperatureHumidityPressure
High115 °F (Aug 16, 12:00 PM)84% (Aug 20, 6:00 AM)29.71 "Hg (Aug 20, 6:00 AM)
Low84 °F (Aug 16, 4:00 AM)8% (Aug 22, 3:00 PM)29.39 "Hg (Aug 16, 2:00 PM)
Average97 °F47%29.55 "Hg
* Reported Aug 15 7:00 AM — Aug 30 7:00 AM, Qatif, Weather by CustomWeather, © 2014

Note: Actual official high and low records may vary slightly from our data, if they occured in-between our weather recording intervals... More about our weather records

Advertising

Qatif weather history for previous 24 hours

 ConditionsComfort  
Time TempWeatherWind HumidityBarometerVisibility
7:00 AM
Aug 30
90 °FSunny.No wind67%29.62 "Hg4 mi
6:00 AM84 °FSunny.2 mph74%29.62 "Hg3 mi
5:00 AM84 °FClear.No wind74%29.59 "Hg4 mi
4:00 AM86 °FClear.No wind75%29.59 "Hg4 mi
3:00 AM86 °FClear.2 mph75%29.56 "Hg4 mi
2:00 AM88 °FClear.No wind70%29.56 "Hg5 mi
1:00 AM90 °FClear.2 mph67%29.56 "Hg5 mi
12:00 AM90 °FClear.5 mph67%29.56 "Hg10 mi
10:00 PM
Aug 29
91 °FClear.8 mph63%29.56 "Hg10 mi
9:00 PM93 °FClear.7 mph59%29.56 "Hg10 mi
8:00 PM95 °FClear.8 mph60%29.53 "Hg10 mi
7:00 PM95 °FClear.9 mph60%29.53 "Hg10 mi
6:00 PM97 °FSunny.14 mph53%29.50 "Hg10 mi
5:00 PM100 °FSunny.18 mph47%29.50 "Hg10 mi
4:00 PM100 °FSunny.18 mph45%29.50 "Hg10 mi
3:00 PM102 °FSunny.18 mph42%29.50 "Hg10 mi
2:00 PM104 °FSunny.20 mph43%29.53 "Hg10 mi
1:00 PM108 °FSunny.7 mph28%29.53 "Hg10 mi
12:00 PM108 °FSunny.2 mph23%29.56 "Hg10 mi
11:00 AM104 °FSunny.5 mph29%29.56 "Hg10 mi
10:00 AM102 °FSunny.7 mph35%29.59 "Hg10 mi
9:00 AM99 °FSunny.6 mph42%29.59 "Hg4 mi
8:00 AM93 °FSunny.7 mph59%29.59 "Hg4 mi
7:00 AM90 °FSunny.8 mph67%29.56 "Hg3 mi
Weather by CustomWeather, © 2014

See weather overviewHow to use our weather pages